Theta_e
300 300 300 300 300 300 300 301 302 303 303 303 303 303 303 303 302 304 313 313 313 312 310 309 311 315 316 320 324 326 330 331 330 329 329 328 327 326 325 325 326 329 331 336 339
300 300 300 300 300 300 301 302 303 303 303 303 303 303 303 303 303 310 313 311 310 308 305 312 312 314 316 319 322 325 329 330 329 329 329 328 328 327 326 326 328 328 330 334 337
300 300 300 300 300 301 301 302 302 303 303 304 304 305 304 303 316 315 314 310 305 307 308 313 312 314 316 317 321 324 328 329 329 329 329 328 328 327 326 326 326 329 331 335 335
300 300 300 300 301 301 301 302 302 303 303 303 305 305 304 308 317 316 309 309 307 310 313 312 314 314 316 318 318 323 324 327 328 329 329 330 329 329 327 326 326 326 330 334 334
300 300 300 300 301 301 302 302 302 302 303 303 305 308 313 320 314 311 311 312 313 314 312 312 313 316 318 317 318 319 321 324 325 326 327 328 329 330 328 327 326 326 326 328 335
300 300 300 300 301 301 302 302 302 302 303 304 306 307 317 320 311 312 312 313 313 313 313 313 313 313 313 316 319 319 319 320 320 323 326 327 328 329 329 329 328 326 327 327 333
299 300 301 301 301 301 302 302 303 303 304 305 306 307 317 314 311 311 312 311 312 313 312 313 313 313 313 314 315 317 319 320 320 320 322 323 325 327 327 328 329 329 328 327 328
298 299 300 301 301 301 302 302 304 305 304 306 306 307 319 310 310 310 310 311 311 310 311 312 312 312 312 313 313 314 316 319 320 320 321 321 323 325 324 327 328 329 329 329 328
305 300 299 301 301 301 302 304 307 308 305 305 311 312 317 311 311 310 310 310 310 311 311 311 311 312 313 314 314 314 313 315 317 320 320 321 322 324 324 325 327 328 329 330 330
308 308 300 301 302 301 303 305 310 310 312 315 313 313 314 312 311 310 310 310 310 311 312 313 313 315 316 315 314 314 315 315 315 316 318 320 322 323 322 322 325 326 327 330 329
307 308 305 300 302 302 306 313 315 317 317 314 312 313 311 311 310 310 310 310 311 311 313 314 314 315 316 316 317 316 316 316 317 317 317 318 320 322 324 323 323 324 326 327 329
307 308 304 303 303 302 311 314 311 311 312 311 311 311 310 310 311 311 310 310 311 312 313 313 314 315 315 315 314 314 315 315 315 315 316 317 318 320 323 323 324 325 324 325 326
308 308 304 305 303 310 312 312 311 311 312 314 312 311 311 311 311 312 311 310 311 312 312 312 313 313 313 313 313 314 313 314 314 315 315 315 316 319 320 322 322 323 324 325 325
308 307 305 305 312 311 314 312 311 311 315 315 312 312 311 311 312 311 311 310 310 311 312 312 312 311 312 312 313 313 313 313 313 314 314 315 316 319 319 321 323 323 323 324 324
305 307 303 304 306 314 312 311 311 312 324 314 312 311 311 312 312 313 311 309 310 311 311 312 312 312 313 313 314 314 314 314 314 315 314 314 315 315 317 319 322 324 323 323 324
302 306 308 311 313 312 311 311 314 319 322 313 312 312 313 313 313 312 311 310 310 311 312 313 313 313 314 315 314 314 313 313 314 315 315 314 315 316 316 318 319 323 323 323 324
304 306 304 310 314 312 311 313 317 321 314 314 313 312 313 313 312 312 311 312 311 311 311 312 312 313 315 315 315 313 314 318 315 315 317 314 314 316 317 317 319 320 322 322 323
306 306 307 310 312 312 311 315 319 315 314 312 312 312 314 313 312 312 312 312 312 311 311 312 312 312 313 314 314 313 313 316 319 315 314 313 313 315 317 318 317 318 320 321 322
307 313 313 314 312 312 311 317 317 313 312 311 312 314 313 313 312 312 313 312 312 311 311 311 311 311 311 311 314 313 314 315 318 315 317 314 313 314 315 318 319 319 320 322 321
307 313 314 315 312 312 313 316 315 312 310 310 312 314 314 313 313 312 312 313 312 312 312 312 312 311 311 311 313 315 315 315 316 315 316 314 312 313 317 320 319 320 323 321 322
311 314 315 313 311 313 317 315 312 309 308 309 313 313 313 312 312 312 312 313 313 313 313 312 312 313 313 312 311 313 314 315 317 316 315 314 314 317 318 319 318 318 321 323 323
311 313 314 309 312 316 315 312 309 310 310 312 312 313 312 312 312 311 312 313 312 312 312 313 314 313 312 312 313 313 315 315 319 316 315 316 317 316 316 315 317 314 322 322 322
312 312 313 311 316 314 312 313 312 311 311 311 311 312 312 311 312 311 313 313 312 313 313 314 313 314 311 311 314 313 313 313 315 317 318 317 315 317 315 315 315 316 318 321 320
312 314 313 311 312 313 313 312 312 311 310 310 311 311 312 312 311 312 312 312 312 312 312 312 314 314 315 312 313 313 313 313 314 317 314 314 313 315 314 315 314 314 318 320 319
312 313 311 313 310 310 312 312 312 311 310 310 311 311 311 312 311 311 311 312 312 312 312 313 316 313 312 312 312 312 313 312 313 314 313 311 312 312 315 314 313 314 315 317 318
308 307 306 307 310 311 311 312 311 311 311 311 310 310 310 310 310 311 311 312 314 313 313 314 315 314 314 313 311 311 311 311 311 312 312 311 312 314 314 314 314 314 315 316 317
306 305 305 306 310 311 311 310 309 309 308 309 309 309 310 311 310 310 310 310 311 313 314 314 315 314 315 313 312 314 313 314 315 314 315 315 315 317 317 316 316 316 316 317 317
Wind_Speed
12 12 12 12 13 12 12 10 10 11 13 14 13 13 14 13 12 9 13 10 16 15 13 13 12 12 16 22 25 25 15 17 23 22 19 23 17 19 18 23 26 23 12 5 10
15 13 12 13 13 12 12 10 10 11 13 13 12 12 13 14 13 11 5 8 17 20 13 9 14 15 20 20 26 20 17 26 23 19 17 21 21 19 16 21 21 27 17 8 5
15 14 14 13 13 13 12 11 11 11 12 12 12 14 14 11 10 7 3 12 10 6 6 11 13 16 23 25 27 27 26 25 30 32 27 24 23 21 19 21 25 20 23 15 11
16 15 14 13 14 14 13 12 12 12 14 14 14 13 7 2 2 3 11 7 3 4 6 10 14 19 20 22 29 26 35 35 35 35 34 26 29 22 21 26 33 30 26 21 17
18 16 15 14 14 13 13 12 13 14 15 14 11 7 6 7 2 8 12 12 10 6 9 10 13 17 20 21 26 29 28 36 37 36 36 35 32 30 22 29 35 34 35 25 29
18 18 17 16 15 14 13 13 15 16 14 9 9 6 7 14 3 4 7 6 6 7 7 8 11 15 22 23 22 27 32 33 37 36 32 29 30 31 37 29 28 33 34 32 21
19 19 18 17 16 14 14 15 17 16 12 6 6 7 11 6 4 5 6 8 5 6 8 8 10 11 14 17 23 27 26 24 28 29 27 31 27 30 38 35 34 30 31 35 31
22 22 20 18 16 14 13 14 15 14 6 4 3 5 9 1 2 5 8 8 6 10 12 12 10 13 16 19 27 20 20 21 23 25 29 25 29 30 38 33 30 34 33 34 34
23 22 21 18 17 14 13 14 11 9 2 3 2 3 8 3 2 9 10 9 13 12 12 12 11 14 15 13 15 16 20 24 25 25 21 24 32 27 32 31 31 32 35 36 36
26 25 22 19 15 12 11 13 14 10 3 4 9 9 10 5 8 10 10 10 11 13 14 14 16 13 13 13 16 17 20 20 25 24 24 26 30 28 34 35 30 32 34 35 41
26 26 25 19 13 9 9 8 5 2 8 14 15 14 11 4 9 8 8 9 12 13 13 12 11 13 17 17 20 20 21 24 25 24 26 22 25 28 24 33 30 33 28 33 41
27 28 24 16 9 4 6 8 8 10 12 17 15 11 8 6 8 9 9 9 15 13 13 12 14 14 14 16 17 19 22 26 25 23 22 24 29 28 22 22 27 33 34 36 31
26 27 19 13 7 2 4 5 8 11 9 5 4 8 7 6 11 14 6 12 13 15 13 12 16 18 16 18 20 20 21 22 24 21 21 25 27 25 27 26 28 30 29 36 38
26 25 16 5 3 5 1 8 10 9 5 8 8 3 5 5 14 5 9 8 12 15 15 13 17 18 18 20 16 19 19 21 22 20 15 17 17 22 22 25 22 27 36 31 26
25 21 11 3 3 6 8 11 10 3 4 5 9 4 4 8 11 9 2 8 13 14 13 15 15 15 17 18 18 22 22 23 23 21 22 24 15 18 21 25 21 22 33 38 27
26 17 2 5 5 5 9 11 5 5 2 5 1 4 9 11 14 6 11 13 20 18 16 20 12 14 9 16 21 19 21 24 23 18 19 24 21 20 20 22 25 22 30 34 35
25 13 4 2 6 9 11 9 5 6 3 3 6 10 13 16 7 3 7 12 10 10 12 15 11 3 5 10 21 14 14 11 16 15 17 23 22 18 24 23 25 27 29 30 24
20 8 4 3 6 8 10 9 5 10 8 14 10 15 18 1 5 8 13 13 9 12 12 13 14 8 3 10 17 16 16 7 13 15 16 19 17 13 22 23 30 37 32 36 16
20 6 3 1 5 6 11 6 4 10 12 11 14 14 7 7 4 14 14 9 7 9 14 13 19 17 19 17 12 17 15 14 11 22 19 18 24 14 21 24 23 26 34 15 17
19 6 7 7 3 5 7 11 14 8 10 11 12 9 12 16 14 13 13 9 8 12 12 15 19 18 24 23 14 24 17 15 7 6 16 16 17 14 13 23 18 23 17 23 26
10 5 4 2 4 8 6 12 11 15 13 6 12 14 14 14 14 14 17 15 13 15 17 16 13 18 18 19 19 14 16 9 5 5 6 12 11 11 17 21 26 29 29 14 4
7 3 1 2 7 5 6 8 8 8 9 10 7 12 10 14 15 16 17 14 16 15 15 11 6 15 21 23 17 9 15 5 8 10 11 13 19 15 21 26 26 33 11 14 7
11 10 2 1 3 7 11 12 14 6 9 13 11 10 12 13 14 8 15 19 15 16 6 5 5 12 14 14 9 8 21 17 14 9 13 12 11 13 20 21 32 32 43 23 8
8 4 1 6 3 7 10 13 12 8 12 6 7 11 12 13 14 13 19 18 11 11 18 9 12 15 14 19 10 11 21 21 17 12 18 13 16 13 9 9 21 36 35 22 9
7 5 6 6 12 14 12 12 14 9 11 10 9 12 11 13 16 18 15 20 17 17 10 2 8 15 19 21 22 23 24 25 21 22 20 18 17 11 10 8 15 31 43 32 14
9 8 11 19 13 13 11 11 12 11 11 14 15 16 15 13 15 24 22 18 15 14 8 5 8 14 21 21 22 24 22 24 25 22 23 22 17 11 8 25 25 31 32 16 14
9 7 7 12 10 10 8 10 13 15 8 13 15 16 19 18 27 30 30 30 24 18 12 5 6 10 21 18 16 15 10 18 20 19 10 12 13 16 17 14 14 21 19 17 12
Wind_Direction
345 342 340 340 338 334 332 333 335 332 330 324 317 315 313 306 290 266 274 242 233 264 272 257 255 247 245 247 240 237 243 246 250 258 271 277 278 282 282 279 260 274 255 288 3
346 343 341 340 337 334 331 329 331 335 339 334 329 323 314 307 294 286 236 284 271 272 268 264 260 249 237 243 233 238 241 241 246 257 265 273 285 281 268 264 245 246 241 204 175
347 343 339 337 336 333 330 325 328 332 338 338 331 320 302 301 309 138 326 293 288 283 255 272 266 262 252 239 233 234 244 243 250 255 252 268 281 278 274 270 262 229 246 179 211
348 342 336 333 333 331 329 327 326 328 330 330 333 332 314 236 7 145 317 355 10 39 283 268 254 244 249 250 239 241 244 248 256 262 276 276 271 252 254 273 282 288 238 244 204
349 344 337 331 327 325 326 328 329 330 332 328 337 348 328 259 27 335 359 353 354 314 278 274 266 259 253 251 247 253 251 250 248 248 260 271 271 273 245 255 268 278 284 273 206
348 346 340 332 327 321 319 327 330 331 332 321 320 314 324 280 17 342 332 333 314 302 300 279 271 271 284 277 264 263 256 258 259 259 250 242 257 265 259 253 252 266 275 278 203
346 343 338 333 324 319 313 319 326 328 328 314 302 294 292 284 348 326 323 323 309 314 302 291 300 295 291 297 262 266 273 276 263 264 256 256 255 246 256 257 255 255 263 270 275
346 342 337 331 326 318 312 315 325 327 331 319 275 278 274 167 287 340 329 315 308 306 292 286 287 284 277 275 292 282 273 265 254 247 254 261 265 248 251 257 244 254 257 263 259
347 342 336 328 325 317 312 312 314 327 313 297 244 250 267 250 300 321 324 310 311 307 299 283 269 271 285 263 267 243 257 260 266 257 256 231 253 255 255 252 255 244 243 251 252
345 343 336 327 322 318 316 304 298 297 280 263 256 263 253 240 326 311 315 304 307 301 298 262 241 257 243 247 254 267 257 252 252 256 262 262 248 244 242 254 248 247 253 242 243
343 342 338 328 321 325 347 334 301 241 240 267 287 271 286 282 304 303 320 311 311 302 274 306 300 273 283 279 278 299 294 284 282 292 298 287 269 261 245 229 234 246 251 247 253
342 342 340 335 326 326 335 335 7 322 304 278 264 263 267 270 289 313 316 310 322 302 302 279 262 266 287 287 276 281 282 279 286 292 291 285 279 279 274 257 250 227 229 244 258
341 341 342 344 350 44 352 346 333 327 288 289 250 221 233 234 281 311 314 309 301 310 300 302 303 307 298 291 286 275 273 278 285 291 281 281 281 278 273 280 275 277 270 230 232
340 341 343 347 20 350 250 333 328 322 276 136 192 191 243 255 265 324 297 311 303 299 303 300 294 284 281 272 273 273 273 277 281 280 271 273 275 262 269 263 259 266 273 268 251
339 341 353 338 307 323 330 325 315 286 260 153 125 127 256 242 289 279 284 279 280 292 288 289 291 293 289 307 333 310 313 304 286 279 277 266 260 269 268 269 254 251 240 261 256
340 336 13 33 350 336 328 325 317 244 268 154 163 242 275 307 292 319 272 276 258 250 259 267 278 276 332 310 303 299 290 283 289 274 263 265 261 264 265 269 268 265 251 238 236
341 328 271 170 341 320 326 303 248 261 133 101 348 325 316 284 345 317 297 285 285 311 297 310 320 329 17 301 321 281 293 287 258 252 262 257 255 260 264 265 266 268 274 265 260
344 333 229 228 305 319 321 275 274 298 1 6 330 313 270 54 313 259 271 281 317 334 314 322 307 353 168 242 266 273 279 270 282 261 274 291 284 278 311 305 274 269 266 258 258
343 333 315 306 283 321 300 260 299 5 352 334 314 288 333 324 266 308 303 326 359 322 303 302 294 295 295 300 300 291 287 239 241 270 263 275 286 256 259 260 268 264 257 235 256
342 312 263 205 298 299 267 263 287 18 351 326 301 289 330 322 315 323 322 337 341 322 332 310 303 301 300 299 278 267 290 294 280 302 279 261 267 272 308 346 264 255 261 250 238
352 267 154 207 289 251 261 293 352 354 325 309 319 315 314 318 325 323 313 324 2 341 331 317 313 307 304 283 282 300 259 261 10 230 261 276 273 63 354 352 334 329 247 226 221
333 305 188 324 260 237 257 349 314 299 314 271 270 309 309 312 311 305 300 311 331 329 315 337 293 288 287 286 310 192 283 256 280 292 288 287 279 18 13 351 338 333 55 283 334
320 300 204 322 312 335 334 321 309 352 322 320 308 320 330 299 299 300 301 300 333 328 322 351 287 308 297 281 41 352 311 306 297 284 264 268 294 44 24 340 329 332 315 295 334
311 322 319 295 269 306 338 314 323 316 288 309 311 290 307 306 307 296 298 305 320 290 298 279 266 259 277 289 286 250 276 276 284 283 283 273 306 290 21 308 329 308 294 282 320
320 9 16 309 334 321 298 299 302 315 322 303 301 308 299 307 305 295 293 300 307 310 301 264 264 276 279 283 278 274 264 276 243 246 265 286 289 291 201 194 260 256 266 292 315
354 353 335 296 311 300 288 306 328 322 338 309 303 308 319 295 274 285 302 305 308 304 285 320 275 293 285 281 279 275 274 272 271 271 268 271 278 304 245 182 224 256 266 285 300
356 346 337 299 290 308 332 329 311 312 308 308 322 310 299 295 290 301 297 289 281 277 293 283 286 290 277 292 290 291 304 307 328 323 349 307 324 316 334 340 317 311 320 310 298